Location: Arbon
(43.0005°N, 0.7472°E)
Time: 11:57:49
(UTC+00:00)

SPOT 3 Rocket - Pass Details

Date: 22 April 2026
Orbit: 774 x 791 km, 98.5° (Epoch: 16 May)

Event Time Altitude Azimuth Distance (km) Brightness Sun altitude
Exits shadow 21:48:50 53° 240° (WSW) 962 3.9 -27.5°
Maximum altitude 21:49:15 55° 260° (W) 945 4.0 -27.5°
Drops below altitude 10° 21:54:20 10° 338° (NNW) 2,348 6.9 -28.0°
Sets 21:56:43 0° 342° (NNW) 3,278 7.9 -28.3°
